Regional Weather Roundup
Issued by NWS

Home | Current Version | Previous Version | Text Only | Print | Product List | Glossary On
Versions: 1 2 3 4 5 6 7 8 9 10 11 12 13 14 15 16 17 18 19 20 21 22 23 24 25 26 27 28 29 30 31 32 33 34 35 36 37 38 39 40 41 42 43 44 45 46 47 48 49 50
000
ASUS42 KFFC 311003
RWRGA
WEATHER ROUNDUP FOR GEORGIA
NATIONAL WEATHER SERVICE PEACHTREE CITY GA
600 AM EDT TUE MAY 31 2016

NOTE: "FAIR" INDICATES FEW OR NO CLOUDS BELOW 12,000 FEET WITH NO
SIGNIFICANT WEATHER AND/OR OBSTRUCTIONS TO VISIBILITY.

* = USE WITH CAUTION. THE STATIONS MARKED WITH AN ASTERISK MAY NOT
REPORT WEATHER SUCH AS PRECIPITATION, FOG, OR THUNDER AND ARE NOT
QUALITY CONTROLLED BY NWS.

THE REMARK "TC" DENOTES TEMPERATURE READING IN DEGREES CELSIUS.

GAZ001>058-311100-
NORTH GEORGIA

CITY           SKY/WX    TMP DP  RH WIND       PRES   REMARKS
ATLANTA        PTCLDY    73  61  65 NE7       29.94R
ATHENS         PTCLDY    67  65  93 E5        29.93S
CHAMBLEE       CLEAR     69  62  78 CALM      29.94S
ROME           CLEAR     63  61  93 CALM      29.94R
WEST ATLANTA   CLEAR     64  60  87 CALM      29.94R
GAINESVILLE    CLEAR     68  62  81 N3        29.98R
CARTERSVILLE   CLEAR     62  61  96 CALM      29.95R FOG


CITY           SKY/WX    TMP DP  RH WIND       PRES   REMARKS
DALTON*        CLEAR     63  63 100 CALM      29.95R
CANTON*        CLEAR     61  57  88 CALM      29.96F
BLAIRSVILLE*     N/A    N/A N/A N/A MISG      30.00S
$$

GAZ059>098-102>109-311100-
CENTRAL GEORGIA

CITY           SKY/WX    TMP DP  RH WIND       PRES   REMARKS
AUGUSTA-BUSH   CLEAR     67  66  97 CALM      29.90R
AUGUSTA-DANIEL CLEAR     70  66  87 N5        29.92R
COLUMBUS       CLEAR     69  64  84 CALM      29.91R
MACON          CLEAR     65  63  93 NW3       29.90S


CITY           SKY/WX    TMP DP  RH WIND       PRES   REMARKS
LAGRANGE*      CLEAR     64  64 100 CALM      29.94R
SYLVANIA*      CLEAR     69  68  94 CALM      29.90R
MILLEDGEVILLE* CLEAR     68  64  88 CALM      29.91R
$$

GAZ099>101-110>166-311100-
SOUTH GEORGIA

CITY           SKY/WX    TMP DP  RH WIND       PRES   REMARKS
SAVANNAH       MOCLDY    71  68  90 CALM      29.89R
VALDOSTA       PTCLDY    68  67  96 CALM      29.90S
ALMA           PTCLDY    68  67  96 CALM      29.89R
ST SIMONS      CLEAR     72  69  90 W8        29.89R
ALBANY         CLEAR     69  65  86 CALM      29.92S
HUNTER AFB     LGT RAIN  72  72 100 E2        29.86R
MOODY AFB      PTCLDY    72  67  83 W6        29.89R
BRUNSWICK      CLEAR     75  70  83 W6        29.89R


CITY           SKY/WX    TMP DP  RH WIND       PRES   REMARKS
BAINBRIDGE*    CLEAR     72  70  94 CALM      29.91S
MOULTRIE*      CLEAR     72  68  88 W3        29.92S
VIDALIA*       CLEAR     70  64  83 CALM      29.88S
WAYCROSS*      PTCLDY    67  67  99 CALM      29.90R
DOUGLAS*       CLEAR     70  68  94 CALM      29.91S
$$



USA.gov is the U.S. government's official web portal to all federal, state and local government web resources and services.